Regional Weather Roundup
Issued by NWS

Home | Current Version | Previous Version | Graphics & Text | Print | Product List | Glossary On
Versions: 1 2 3 4 5 6 7 8 9 10 11 12 13 14 15 16 17 18 19 20 21 22 23 24 25 26 27 28 29 30 31 32 33 34 35 36 37 38 39 40 41 42 43 44 45 46 47 48 49 50
612
ASUS43 KMPX 221301
RWRMN
WEATHER ROUNDUP FOR MINNESOTA
NATIONAL WEATHER SERVICE TWIN CITIES/CHANHASSEN MN
800 AM CDT FRI MAY 22 2015


NOTE: "FAIR" INDICATES FEW OR NO CLOUDS BELOW 12,000 FEET WITH NO
SIGNIFICANT WEATHER AND/OR OBSTRUCTIONS TO VISIBILITY. N/A MEANS
CURRENT SKY AND/OR WEATHER CONDITIONS ARE NOT AVAILABLE.

MNZ060>063-068>070-221400-
   Twin Cities Metro

CITY           SKY/WX    TMP DP  RH WIND       PRES   REMARKS
TWIN CITIES    SUNNY     56  39  53 VRB3      30.21R
ST PAUL        SUNNY     54  42  64 W5        30.21R
CRYSTAL        SUNNY     55  37  50 VRB3      30.20R
BLAINE         SUNNY     52  41  66 CALM      30.20R
LAKEVILLE      SUNNY     54  39  58 CALM      30.20R
EDEN PRAIRIE   SUNNY     55  39  54 CALM      30.20R
SOUTH ST PAUL  SUNNY     54  40  58 CALM      30.20R
LAKE ELMO      FAIR      54  41  62 CALM      30.21R
$$
MNZ001>005-007-008-013>017-022>024-027-028-221400-
   Northwest Minnesota

CITY           SKY/WX    TMP DP  RH WIND       PRES   REMARKS
BEMIDJI        SUNNY     47  38  70 CALM      30.20R
HALLOCK        SUNNY     52  43  71 S7        30.16S
ROSEAU         SUNNY     50  43  76 S3        30.17S
WARROAD        SUNNY     48  43  81 CALM      30.18S
THIEF RVR FALL SUNNY     50  39  66 CALM      30.20R
CROOKSTON      SUNNY     52  41  66 S3        30.20R
FOSSTON        SUNNY     52  43  71 CALM      30.20S
DETROIT LAKES  SUNNY     50  46  87 CALM      30.21S
MOORHEAD       SUNNY     52  43  71 E3        30.21S
PARK RAPIDS    SUNNY     50  43  77 CALM      30.20R
MAHNOMEN       FAIR      47  41  81 S3        30.21R
$$
MNZ006-009>011-018-025>026-221400-
   North Central Minnesota

CITY           SKY/WX    TMP DP  RH WIND       PRES   REMARKS
BAUDETTE       SUNNY     48  41  76 CALM      30.18R
FLAG ISLAND    SUNNY     50  45  81 S3        30.16R
INTL FALLS     SUNNY     48  38  68 CALM      30.19R
WASKISH        SUNNY     48  46  93 CALM      30.19S
BIG FORK       SUNNY     46  39  76 CALM      30.20S
LONGVILLE      SUNNY     48  46  93 CALM      30.20R
GRAND RAPIDS   SUNNY     50  39  66 CALM      30.21R
CRANE LAKE     SUNNY     43  37  81 CALM      30.21S
COOK           SUNNY     45  36  70 CALM      30.20S
WALKER         FAIR      45  41  85 CALM      30.20R
$$
MNZ012-019>021-037-221400-
   Northeast Minnesota

CITY           SKY/WX    TMP DP  RH WIND       PRES   REMARKS
DULUTH         SUNNY     52  28  39 E3        30.20R
ELY            SUNNY     46  36  66 CALM      30.20R
HIBBING        SUNNY     48  36  63 CALM      30.20R
EVELETH        SUNNY     45  37  76 CALM      30.21R
DULUTH HARBOR  SUNNY     45  37  76 E8        30.23R
TWO HARBORS    SUNNY     52  36  54 CALM      30.19R
SILVER BAY     SUNNY     48  32  53 CALM      30.19R
GRAND MARAIS     N/A     42  29  59 NE6       30.22R
G MARAIS ARPRT SUNNY     45  21  39 CALM      30.20R
$$
MNZ029>031-032-039>041-046>048-054>057-064-221400-
   West Central Minnesota

CITY           SKY/WX    TMP DP  RH WIND       PRES   REMARKS
FERGUS FALLS   SUNNY     52  43  71 E3        30.20F
WHEATON        SUNNY     54  43  66 CALM      30.21S
MORRIS         SUNNY     54  43  66 CALM      30.19R
ALEXANDRIA     SUNNY     56  41  57 MISG      30.20S
ELBOW LAKE     FAIR      52  43  71 CALM      30.19S
WADENA         SUNNY     48  43  81 CALM      30.20S
GLENWOOD       SUNNY     54  45  71 E2        30.20S
APPLETON       SUNNY     54  45  71 CALM      30.19R
BENSON         SUNNY     52  43  71 CALM      30.20R
ORTONVILLE     SUNNY     55  39  54 CALM      30.19R
MADISON        SUNNY     54  39  58 CALM      30.19R
WILLMAR        FAIR      54  46  76 CALM      30.21S
$$
MNZ033>034-036-042>043-049>051-058-059-221400-
   Central Minnesota

CITY           SKY/WX    TMP DP  RH WIND       PRES   REMARKS
ST CLOUD       SUNNY     52  42  69 CALM      30.21R
SAUK CENTRE    FAIR      51  46  83 CALM      30.21S
PAYNESVILLE    SUNNY     48  42  81 CALM      30.21S
AITKIN         SUNNY     48  43  81 CALM      30.20R
PINE RIVER     SUNNY     48  45  87 CALM      30.24R
BRAINERD       SUNNY     50  44  80 CALM      30.21R
STAPLES        SUNNY     48  43  81 CALM      30.21R
LONG PRAIRIE   FAIR      50  41  71 CALM      30.21S
LITTLE FALLS   SUNNY     48  41  76 CALM      30.21R
LITCHFIELD     SUNNY     55  41  58 CALM      30.21S
BUFFALO        SUNNY     53  38  56 CALM      30.21S
MAPLE LAKE     SUNNY     53  43  68 CALM      30.22R
$$
MNZ037-044-045-052-053-221400-
   East Central Minnesota

CITY           SKY/WX    TMP DP  RH WIND       PRES   REMARKS
PRINCETON      SUNNY     54  41  62 CALM      30.21R
MORA           SUNNY     50  37  62 CALM      30.23R
CAMBRIDGE      SUNNY     54  39  58 CALM      30.19R
RUSH CITY      SUNNY     49  38  66 CALM      30.21R
MOOSE LAKE     SUNNY     48  36  61 CALM      30.20R
HINCKLEY       FAIR      50  39  66 CALM      30.22R
CLOQUET        SUNNY     50  36  57 CALM      30.21R
MCGREGOR       SUNNY     48  41  76 CALM      30.22R
$$
MNZ071>073-080-081-089-090-097-098-221400-
   Southwest Minnesota

CITY           SKY/WX    TMP DP  RH WIND       PRES   REMARKS
MONTEVIDEO     SUNNY     55  43  62 CALM      30.21R
GRANITE FALLS  SUNNY     53  39  60 CALM      30.22R
CANBY          SUNNY     55  42  61 CALM      30.20S
MARSHALL       SUNNY     55  37  50 CALM      30.19S
REDWOOD FALLS  SUNNY     52  41  66 NW3       30.20R
OLIVIA         SUNNY     52  39  62 CALM      30.19R
WINDOM         SUNNY     52  39  62 CALM      30.20S
WORTHINGTON    SUNNY     55  37  50 CALM      30.21R
JACKSON        SUNNY     57  36  44 NW6       30.20S
TRACY          SUNNY     59  37  44 CALM      30.21R
SLAYTON        SUNNY     54  40  59 CALM      30.21S
$$
MNZ065>067-074>077-082>085-091>093-221400-
   South Central Minnesota

CITY           SKY/WX    TMP DP  RH WIND       PRES   REMARKS
MANKATO        SUNNY     54  39  58 CALM      30.20R
NEW ULM        SUNNY     52  39  62 CALM      30.20R
ST JAMES       SUNNY     55  37  50 NW3       30.21S
FAIRMONT       SUNNY     55  36  47 NW6       30.19S
GLENCOE        SUNNY     55  43  62 CALM      30.19S
FARIBAULT      SUNNY     54  39  58 NE3       30.19S
OWATONNA       SUNNY     54  43  66 CALM      30.19S
WASECA         SUNNY     52  41  66 CALM      30.21R
ALBERT LEA     SUNNY     55  43  62 CALM      30.19S
$$
MNZ078>079-086>088-094>096-221400-
   Southeast Minnesota

CITY           SKY/WX    TMP DP  RH WIND       PRES   REMARKS
ROCHESTER      SUNNY     54  39  57 N7        30.20R
RED WING       SUNNY     52  39  62 CALM      30.19R
STANTON        SUNNY     52  40  65 CALM      30.18S
DODGE CENTER   SUNNY     55  37  50 N6        30.19R
WINONA         SUNNY     50  41  71 CALM      30.20R
AUSTIN         SUNNY     54  39  58 CALM      30.19R
PRESTON        SUNNY     54  38  56 N5        30.19R
$$
ABBREVIATIONS USED IN REMARKS
   TC - TEMPERATURES IN CELSIUS
  WCI - WIND CHILL INDEX
   HX - HEAT INDEX
  VSB - VISIBILITY
$$



USA.gov is the U.S. government's official web portal to all federal, state and local government web resources and services.